Location: Bad Salzschlirf
(50.3750°N, 9.3000°E)
Time: 03:18:08
(UTC+02:00)

ISS - Pass Details

Date: 09 July 2020
Orbit: 417 x 421 km, 51.6° (Epoch: 08 July)

Event Time Altitude Azimuth Distance (km) Brightness Sun altitude
Exits shadow 01:05:23 13° 101° (E) 1,325 -1.4 -17.1°
Drops below altitude 10° 01:05:58 10° 93° (E) 1,496 -1.1 -17.1°
Sets 01:08:25 0° 76° (ENE) 2,363 0.2 -17.2°
